GW3137 Weather Reports


Display with metric or nautical units.
time (UTC)temp
F
wind
direction
speed
MPH
gust
MPH
rain 1hr
in
rain 24hr
in
rain mn
in
humidity
%
barometer
mb
20260505180204 58 239 1.0 7.0 0.00 0.00 0.00 80 1016.1
20260505173705 58 217 2.0 3.0 0.00 0.00 0.00 80 1016.1
20260505173204 58 245 2.0 6.0 0.00 0.00 0.00 80 1016.0
20260505170704 58 182 3.0 8.0 0.00 0.00 0.00 80 1015.9
20260505170204 58 125 3.0 7.0 0.00 0.00 0.00 79 1015.9
20260505163704 58 198 2.0 6.0 0.00 0.00 0.00 81 1015.8
20260505163204 58 148 2.0 7.0 0.00 0.00 0.00 81 1015.8
20260505160203 57 103 2.0 10.0 0.00 0.00 0.00 81 1015.5
20260505153204 57 157 2.0 8.0 0.00 0.00 0.00 82 1015.6
20260505150203 57 179 1.0 6.0 0.00 0.00 0.00 82 1015.4
20260505130204 57 162 2.0 8.0 0.00 0.00 0.00 83 1014.2
20260505123703 57 175 3.0 8.0 0.00 0.00 0.00 83 1014.0
20260505120704 56 187 3.0 7.0 0.00 0.00 0.00 83 1013.9
20260505120204 56 158 3.0 9.0 0.00 0.00 0.00 83 1013.9
20260505113704 56 163 4.0 9.0 0.00 0.00 0.00 83 1013.9
20260505113204 56 161 2.0 9.0 0.00 0.00 0.00 83 1013.8
20260505110704 56 212 2.0 8.0 0.00 0.00 0.00 84 1013.7
20260505110203 56 163 4.0 7.0 0.00 0.00 0.00 84 1013.7
20260505100703 56 202 3.0 7.0 0.00 0.00 0.00 84 1013.3
20260505100204 56 193 2.0 9.0 0.00 0.00 0.00 84 1013.3
20260505093704 57 225 1.0 5.0 0.00 0.00 0.00 84 1013.1
20260505090704 56 167 2.0 3.0 0.00 0.00 0.00 84 1012.9
20260505090204 56 182 2.0 8.0 0.00 0.00 0.00 84 1012.9
20260505083703 56 175 2.0 3.0 0.00 0.00 0.00 84 1012.8
20260505083204 56 174 2.0 9.0 0.00 0.00 0.00 84 1012.8
20260505080704 57 155 1.0 3.0 0.00 0.00 0.00 83 1012.7
20260505080203 57 242 2.0 8.0 0.00 0.00 0.00 83 1012.7
20260505073704 57 172 2.0 7.0 0.00 0.00 0.00 82 1012.5
20260505073204 57 140 1.0 5.0 0.00 0.00 0.00 82 1012.4
20260505070204 58 163 1.0 7.0 0.00 0.00 0.00 82 1012.1
20260505063704 58 201 2.0 5.0 0.00 0.00 0.00 81 1011.8
20260505063203 58 161 2.0 10.0 0.00 0.00 0.00 80 1011.9
20260505060704 58 219 2.0 5.0 0.00 0.00 0.00 80 1011.6
20260505060204 58 191 2.0 9.0 0.00 0.00 0.00 80 1011.6
20260505053704 59 170 5.0 10.0 0.00 0.00 0.00 78 1011.4
20260505053205 60 198 2.0 9.0 0.00 0.00 0.00 78 1011.3
20260505050204 62 186 1.0 8.0 0.00 0.00 0.00 75 1011.1
20260505040204 66 158 3.0 9.0 0.00 0.00 0.00 67 1010.1
20260505033704 68 202 3.0 6.0 0.00 0.00 0.00 63 1009.7
20260505033205 69 208 3.0 10.0 0.00 0.00 0.00 63 1009.6
20260505030704 71 209 4.0 10.0 0.00 0.00 0.00 59 1009.2
20260505030204 72 199 2.0 10.0 0.00 0.00 0.00 58 1009.2
20260505023204 76 245 3.0 9.0 0.00 0.00 0.00 52 1009.0
20260505020204 79 244 3.0 9.0 0.00 0.00 0.00 50 1008.9
20260505013704 80 215 3.0 8.0 0.00 0.00 0.00 48 1008.9
20260505013204 80 220 3.0 12.0 0.00 0.00 0.00 47 1008.9
20260505010204 82 249 2.0 8.0 0.00 0.00 0.00 44 1009.0
20260505003204 83 224 1.0 8.0 0.00 0.00 0.00 40 1009.0
20260505000705 83 245 5.0 10.0 0.00 0.00 0.00 37 1009.2
20260505000204 83 189 2.0 9.0 0.00 0.00 0.00 37 1009.2
20260504233704 81 296 4.0 10.0 0.00 0.00 0.00 32 1009.2
20260504233204 82 253 3.0 12.0 0.00 0.00 0.00 30 1009.2
20260504230704 83 220 2.0 8.0 0.00 0.00 0.00 32 1009.3
20260504230204 84 218 3.0 8.0 0.00 0.00 0.00 31 1009.3
20260504223705 82 226 3.0 9.0 0.00 0.00 0.00 33 1009.7
20260504223204 81 177 5.0 9.0 0.00 0.00 0.00 32 1009.7
20260504220204 81 253 2.0 8.0 0.00 0.00 0.00 32 1010.0
20260504213704 80 195 2.0 9.0 0.00 0.00 0.00 38 1010.1
20260504213204 81 240 3.0 8.0 0.00 0.00 0.00 36 1010.0
20260504210704 79 219 3.0 8.0 0.00 0.00 0.00 39 1010.2
20260504210204 79 270 4.0 9.0 0.00 0.00 0.00 38 1010.2
20260504203704 78 275 2.0 7.0 0.00 0.00 0.00 42 1010.4
20260504203203 78 168 3.0 10.0 0.00 0.00 0.00 41 1010.4
20260504200705 76 228 3.0 9.0 0.00 0.00 0.00 44 1010.3
20260504200204 77 170 2.0 9.0 0.00 0.00 0.00 44 1010.3
20260504193705 75 204 3.0 6.0 0.00 0.00 0.00 46 1010.5
20260504193204 75 172 3.0 12.0 0.00 0.00 0.00 45 1010.5
20260504190704 74 250 3.0 8.0 0.00 0.00 0.00 48 1010.7
20260504190204 74 189 4.0 9.0 0.00 0.00 0.00 49 1010.6
20260504183704 73 189 3.0 8.0 0.00 0.00 0.00 49 1010.8
20260504183205 73 223 3.0 9.0 0.00 0.00 0.00 49 1010.8